Track GLOBALSTAR M051 now! 10-day predictions GLOBALSTAR M051 is classified as:
1 25853U 99037C 21022.82466529 -.00000061 00000-0 28114-3 0 9997 2 25853 51.9817 315.9276 0000882 289.9175 70.1541 11.42177418948823